Temperature
19 19 19 19 19 19 19 19 19 19 19 19 19 19 19 19 19 19 19 18 18 18 18 18 18 18 18 18 18 18 18 18 17 17 17 17 17 17 17 17 17 17 17
20 19 19 19 19 19 19 19 19 19 19 19 19 19 19 19 19 19 18 18 18 18 18 18 18 18 18 18 18 18 18 17 17 17 17 17 17 17 17 17 17 17 17
20 19 19 19 19 19 19 19 19 19 19 19 19 19 19 19 19 18 18 18 18 18 18 18 18 18 18 18 18 18 17 17 17 17 17 17 17 17 17 17 17 17 17
20 20 20 19 20 19 19 19 19 19 19 19 19 19 19 19 19 18 18 18 18 18 18 18 18 18 18 18 18 17 17 17 17 17 17 17 17 17 17 17 17 17 17
20 20 20 20 20 20 20 19 19 19 19 19 19 19 19 19 18 18 18 18 18 18 18 18 18 18 18 18 18 18 17 17 17 17 17 17 17 17 17 17 17 17 17
20 20 20 20 20 20 20 19 19 19 19 19 19 19 19 19 19 18 18 18 18 18 18 18 18 18 18 17 17 18 17 17 17 17 17 17 17 17 17 17 17 17 17
20 20 20 20 20 20 19 19 19 19 19 19 19 19 19 19 18 18 18 18 18 18 18 18 18 18 17 17 17 17 17 17 17 17 17 17 17 17 17 17 17 17 17
20 20 20 20 20 20 19 19 19 19 19 19 19 19 19 18 18 18 18 18 18 18 18 18 17 17 17 17 17 17 17 18 17 17 17 17 17 17 17 17 17 17 16
20 20 20 20 20 19 19 19 19 19 19 19 19 19 19 18 18 18 18 18 18 18 18 17 17 17 17 17 17 17 17 17 18 17 17 17 17 17 17 17 17 17 16
20 20 20 20 19 19 19 19 19 19 19 19 19 19 18 18 18 18 18 18 18 18 18 17 17 17 17 17 17 17 17 17 17 17 17 17 17 17 17 17 17 17 16
19 19 20 20 19 19 19 19 19 19 19 19 19 18 18 18 18 18 18 18 18 18 17 17 17 17 17 17 17 17 17 17 17 17 17 17 17 17 17 17 17 17 17
19 19 19 19 19 19 19 19 19 19 19 18 18 18 18 18 18 18 18 18 18 18 17 17 17 17 17 17 17 17 18 17 17 17 17 17 17 17 17 17 17 17 16
20 19 19 19 19 19 19 19 19 19 18 18 18 18 18 18 18 18 18 18 18 17 17 17 17 17 17 17 17 17 17 17 17 17 17 17 17 17 17 17 17 17 16
20 20 19 19 19 19 19 19 19 19 19 19 18 18 18 18 18 18 18 18 18 18 17 17 17 17 17 17 17 17 17 17 17 17 17 17 17 17 17 17 17 16 16
20 20 20 19 19 19 19 19 19 19 19 19 18 19 18 18 18 18 18 18 18 18 17 17 17 17 17 17 17 17 17 17 17 17 17 17 17 17 17 17 17 16 16
20 20 20 20 19 19 19 19 19 19 19 19 19 19 18 18 18 18 18 18 18 18 17 17 17 17 17 17 17 17 17 17 17 17 17 17 17 17 17 17 17 16 16
21 20 20 20 19 19 19 19 19 19 19 19 18 18 18 18 18 18 18 18 18 17 17 17 17 17 17 17 17 17 17 17 17 17 17 17 17 17 17 16 16 16 16
21 20 20 20 19 19 19 19 19 19 19 18 18 18 18 18 18 18 18 18 17 17 17 17 17 17 17 17 17 17 17 17 17 17 17 17 17 17 17 16 16 16 16
20 20 20 20 19 19 19 19 19 19 18 18 18 18 18 18 18 18 18 17 17 17 17 17 17 17 17 17 17 17 17 17 17 17 17 17 17 16 16 16 16 16 16
20 20 20 19 19 19 19 19 18 18 18 18 18 18 18 18 17 17 17 17 17 17 17 17 17 17 17 17 17 17 17 17 17 17 17 17 16 16 16 16 16 16 16
20 20 20 19 19 19 18 18 18 18 18 18 18 18 18 18 18 17 17 17 17 17 17 17 17 17 17 17 17 17 17 17 17 17 17 17 17 16 16 16 16 16 16
20 20 19 19 19 19 19 19 18 18 18 18 18 17 17 17 17 17 17 17 17 17 17 17 17 17 17 17 17 17 17 17 17 17 17 17 17 16 16 16 16 16 16
20 20 20 19 19 19 18 18 18 18 17 17 17 17 17 17 17 17 17 17 17 17 17 17 17 17 17 17 17 17 17 17 17 17 17 17 17 17 16 16 16 16 16
20 20 19 19 19 18 18 18 18 18 18 18 18 18 17 17 17 17 17 17 17 17 17 17 17 17 17 17 17 17 17 17 17 17 17 17 17 17 17 16 16 16 16
20 20 19 19 19 18 18 18 18 18 18 18 18 17 17 17 17 17 17 17 17 17 17 17 17 17 17 17 17 17 17 17 17 17 17 17 17 17 17 16 16 16 16
20 19 19 19 19 18 18 18 18 18 18 17 17 17 17 17 17 17 17 17 17 17 17 17 17 17 17 17 17 17 17 17 17 17 17 17 17 17 17 16 16 16 16
Wind_Speed
7 9 17 17 17 18 18 19 19 20 20 20 21 20 20 20 19 18 18 18 18 18 18 18 18 18 18 18 18 19 19 18 18 18 19 19 19 19 19 19 18 17 19
11 14 18 18 18 18 18 19 19 19 19 20 20 20 19 19 19 18 18 18 18 18 18 18 18 18 18 18 18 18 18 19 19 19 18 18 18 18 18 18 17 16 18
15 14 18 19 18 18 18 18 18 18 19 19 19 19 18 18 18 18 18 18 18 18 18 18 18 19 18 18 18 18 18 18 18 18 17 15 15 16 17 17 17 17 17
15 14 17 19 19 18 18 18 18 18 18 18 18 18 18 18 18 18 18 18 18 18 18 18 18 18 18 18 17 18 17 18 18 16 13 13 14 16 16 17 17 17 17
12 14 18 20 19 18 18 17 17 17 17 17 17 17 17 17 17 18 18 18 17 17 17 18 18 17 17 17 16 16 17 17 16 14 12 12 13 16 16 16 16 16 16
12 13 18 21 19 18 18 17 17 17 17 17 16 16 17 17 17 17 17 17 17 17 17 17 17 16 16 15 15 15 16 16 14 13 12 12 13 15 16 16 16 16 16
12 12 17 20 19 18 18 17 16 16 16 16 16 16 16 17 17 17 17 16 16 16 16 16 16 15 14 14 14 15 15 15 13 12 11 11 13 15 15 15 15 15 15
13 10 16 20 20 19 18 17 16 16 16 15 15 16 15 16 16 16 16 16 15 16 15 15 15 14 13 13 14 15 15 14 12 11 11 11 13 15 15 14 14 15 14
10 9 10 15 17 18 18 17 16 16 15 15 15 15 15 15 15 15 15 15 15 14 14 14 13 13 12 12 13 14 14 14 12 10 10 10 13 14 14 14 14 14 13
9 8 8 10 12 13 15 17 16 16 15 15 14 14 14 14 14 14 13 13 13 13 13 13 13 12 11 11 12 13 14 13 11 10 9 11 13 13 13 13 13 13 13
11 8 8 8 9 11 12 15 15 15 15 15 14 14 12 11 11 11 12 12 12 12 11 11 11 11 10 11 12 13 12 10 10 9 9 11 12 12 12 13 12 12 12
15 11 8 8 8 9 11 11 10 11 12 11 10 11 10 10 9 10 11 11 11 11 10 10 11 10 10 9 10 11 9 10 8 8 9 11 11 12 12 12 11 11 11
15 13 10 9 8 8 6 8 7 8 9 10 10 11 10 9 7 7 7 7 8 8 8 8 8 8 8 8 8 9 9 8 7 7 8 10 11 11 11 11 11 10 10
15 14 11 10 9 7 7 7 6 6 6 7 9 11 9 6 5 5 5 6 6 6 6 6 6 7 7 7 8 9 9 7 7 6 7 9 10 10 10 10 9 10 9
15 14 13 12 11 8 6 6 7 6 7 8 9 10 10 6 4 4 4 5 6 6 5 5 5 5 5 6 7 8 7 7 7 6 6 8 8 9 9 9 8 9 8
16 15 13 13 11 9 7 6 6 7 8 8 9 10 11 8 6 4 4 4 4 5 5 5 5 4 4 4 5 6 6 7 7 6 5 6 7 8 8 8 7 8 8
16 15 14 13 11 10 8 7 7 7 8 7 8 11 11 10 8 6 4 3 4 5 6 6 5 4 4 3 4 4 5 6 6 6 5 5 5 6 7 7 6 7 7
13 14 14 14 13 11 9 7 6 7 7 7 9 10 11 11 10 7 4 4 5 5 5 4 3 3 3 3 3 2 3 4 5 5 5 4 4 4 5 6 6 6 7
13 14 14 12 13 12 9 7 6 7 6 7 9 9 11 11 11 8 5 4 6 5 3 4 2 2 3 3 3 2 2 2 2 3 3 4 4 4 4 5 6 6 7
13 13 13 12 12 11 8 6 5 5 5 6 7 9 11 12 12 9 6 5 6 4 3 3 3 3 2 3 3 3 2 1 1 1 3 3 4 5 5 4 5 5 6
14 14 15 13 12 11 9 9 8 7 6 6 6 10 12 12 12 10 6 6 6 5 5 5 3 3 2 2 3 3 2 2 0 1 2 3 4 5 5 5 5 5 4
15 15 14 14 13 12 10 9 6 6 5 6 5 8 11 12 12 11 8 7 6 5 5 5 4 3 2 2 3 3 1 2 1 1 2 3 4 5 5 6 6 6 5
15 16 15 15 13 12 9 6 5 4 3 4 5 6 8 12 12 11 10 8 7 6 6 6 6 6 4 2 1 3 3 3 1 1 1 2 3 3 4 5 7 7 7
15 14 13 13 12 11 11 10 11 9 7 8 7 6 7 9 10 11 11 10 8 6 6 6 5 4 5 4 1 1 2 3 3 1 1 1 2 4 4 4 6 7 8
12 12 12 11 12 11 12 13 12 9 7 5 5 7 7 6 8 10 10 9 8 7 7 7 6 5 4 5 4 2 2 1 1 2 1 1 1 2 3 4 5 6 7
10 11 11 12 12 13 14 13 13 12 10 9 9 9 7 5 6 7 9 8 8 7 7 7 6 7 5 5 4 3 3 3 3 3 3 2 2 1 1 3 4 6 7
Wind_Direction
155 158 144 135 128 122 119 117 116 116 116 117 117 118 119 118 116 115 113 112 112 111 110 110 111 111 112 111 113 113 113 112 111 110 110 109 109 108 108 107 106 106 108
147 154 145 139 133 127 122 120 118 118 119 119 120 120 120 120 118 117 115 114 113 111 111 111 111 111 110 110 113 114 115 115 114 112 110 109 108 109 110 110 108 110 109
143 149 145 142 136 130 126 123 122 121 122 122 122 122 122 121 120 119 117 115 114 113 112 112 112 111 110 111 113 115 117 116 113 111 108 108 110 111 112 112 111 111 110
143 145 146 145 140 134 130 128 126 125 125 125 124 124 123 123 121 120 117 116 115 114 114 114 114 114 113 114 114 114 115 115 113 110 105 108 111 113 112 112 112 112 111
141 144 151 147 143 139 135 133 131 129 128 127 127 126 126 125 123 121 119 118 117 117 116 116 116 115 115 115 116 116 116 115 112 107 102 103 111 115 114 113 112 111 111
141 147 154 149 147 143 140 137 135 133 131 129 129 129 128 128 127 124 122 120 119 118 117 118 117 117 117 116 117 119 119 115 109 105 104 108 113 117 116 115 114 113 112
145 149 155 152 150 147 144 141 139 137 135 132 131 131 129 130 130 128 125 123 121 120 119 119 118 117 117 118 119 120 118 117 111 107 106 110 116 117 117 116 116 115 113
148 148 155 154 153 152 149 147 144 140 137 135 132 131 130 131 131 128 126 125 123 122 121 120 118 117 117 117 121 123 121 122 118 113 111 113 120 119 118 119 119 116 116
146 145 149 154 156 155 153 151 149 145 143 140 137 135 134 132 130 130 129 127 126 124 123 122 119 116 118 122 124 129 127 124 120 119 119 119 123 122 121 122 121 119 118
146 146 144 148 151 154 155 156 153 150 148 145 142 140 139 136 135 133 130 129 128 128 127 126 122 117 121 126 127 132 129 123 121 119 120 126 126 126 125 125 124 122 120
158 153 147 145 146 148 153 160 158 156 154 150 149 147 139 131 131 131 135 135 133 132 130 128 123 117 118 125 128 132 126 123 122 122 125 131 132 130 129 129 128 127 124
171 167 157 152 149 150 159 157 155 154 153 147 146 138 129 128 132 135 141 138 135 133 130 127 123 116 113 118 126 123 123 126 125 128 134 137 137 135 133 132 132 131 128
172 171 166 158 154 154 151 149 148 143 143 142 140 134 133 129 129 125 126 125 122 121 113 114 110 112 117 122 123 125 129 130 130 133 142 145 144 141 139 139 137 137 136
173 175 168 164 159 157 151 151 146 143 145 144 144 143 140 133 126 125 120 116 110 111 108 106 108 112 117 126 134 135 136 136 134 133 147 151 151 149 147 146 147 146 146
176 175 172 170 169 163 153 158 158 154 156 155 153 154 154 147 141 137 131 125 123 125 121 113 113 115 114 121 136 143 146 147 144 144 154 159 158 157 156 157 158 157 158
180 177 174 175 172 165 164 164 162 163 163 162 165 166 165 160 155 149 141 135 136 138 133 126 124 123 117 120 132 141 146 149 150 152 157 167 170 169 169 169 170 170 172
181 176 176 176 172 171 169 171 167 168 168 171 174 174 174 172 167 161 153 153 155 144 131 118 109 108 114 114 115 128 138 146 153 156 158 166 177 182 183 185 186 185 186
177 175 177 182 178 176 174 169 163 170 173 175 176 179 182 180 175 166 164 169 162 147 135 122 115 108 111 120 119 121 131 142 155 162 165 176 184 189 197 203 201 201 202
178 175 177 179 178 179 174 169 166 167 174 177 178 181 184 182 179 173 173 171 159 144 139 145 123 124 135 135 128 108 116 142 155 172 181 192 195 196 204 217 218 217 216
176 175 178 179 177 175 170 165 163 167 176 178 183 186 185 183 180 176 175 169 159 146 149 142 127 100 113 133 119 90 58 65 134 185 207 209 213 214 215 221 223 225 227
178 180 181 181 179 175 177 180 181 186 182 185 191 190 188 185 180 177 177 166 167 167 164 151 129 116 107 115 95 68 32 35 43 231 225 225 230 227 219 221 221 222 231
183 184 182 185 183 183 187 184 181 171 179 189 192 188 187 186 182 184 176 175 173 163 158 159 144 133 126 134 128 114 60 352 330 259 224 226 234 232 227 225 220 220 223
185 186 188 187 186 185 179 162 151 134 134 175 191 190 189 189 187 183 181 177 175 171 176 178 162 152 152 151 155 147 152 209 273 323 267 235 227 225 230 225 223 222 222
188 184 182 182 183 182 177 178 175 182 188 196 190 188 183 186 186 185 182 180 176 176 177 182 174 164 152 160 151 112 136 149 152 236 316 277 235 228 229 226 224 223 221
178 176 176 177 180 182 184 189 185 189 190 178 170 178 183 185 188 186 183 182 180 182 182 177 170 170 165 163 163 152 127 95 121 152 223 288 290 249 231 224 226 227 223
170 172 172 178 185 186 190 191 190 188 182 175 182 188 188 187 188 188 185 185 185 184 183 182 177 175 178 167 167 164 161 164 179 168 188 226 248 282 266 234 228 228 225
Height
1500 1503 1506 1508 1510 1511 1513 1514 1515 1516 1517 1518 1519 1521 1522 1523 1525 1526 1528 1529 1531 1532 1534 1535 1537 1538 1540 1541 1543 1544 1545 1547 1548 1549 1550 1551 1552 1554 1555 1556 1557 1558 1560
1499 1503 1507 1509 1511 1513 1515 1516 1517 1518 1519 1521 1522 1523 1525 1526 1528 1529 1530 1532 1533 1535 1536 1538 1539 1541 1542 1544 1545 1546 1548 1549 1550 1551 1552 1554 1555 1556 1558 1559 1560 1561 1562
1500 1504 1508 1511 1513 1515 1516 1518 1519 1521 1522 1523 1525 1526 1527 1529 1530 1532 1533 1534 1536 1537 1539 1540 1542 1543 1545 1546 1548 1549 1550 1552 1553 1554 1555 1556 1557 1559 1560 1561 1563 1564 1565
1501 1505 1508 1512 1514 1516 1518 1520 1521 1523 1524 1525 1527 1528 1530 1531 1533 1534 1535 1537 1538 1540 1541 1543 1544 1546 1547 1549 1550 1552 1553 1554 1555 1556 1557 1559 1560 1561 1563 1564 1565 1566 1567
1503 1506 1510 1513 1516 1518 1520 1522 1523 1525 1526 1528 1529 1530 1532 1534 1535 1536 1538 1540 1541 1542 1544 1545 1547 1548 1550 1552 1553 1554 1556 1557 1558 1559 1560 1561 1562 1564 1565 1566 1568 1569 1570
1504 1508 1511 1514 1517 1519 1522 1523 1525 1527 1528 1530 1531 1533 1534 1536 1537 1539 1540 1542 1544 1545 1547 1548 1550 1551 1553 1554 1556 1557 1558 1559 1560 1561 1563 1564 1565 1566 1567 1569 1570 1571 1573
1505 1509 1512 1515 1518 1521 1523 1525 1527 1529 1530 1532 1533 1535 1536 1538 1539 1541 1543 1544 1546 1548 1549 1551 1552 1554 1555 1557 1558 1559 1560 1562 1563 1564 1565 1566 1567 1569 1570 1571 1572 1574 1575
1506 1510 1513 1516 1519 1522 1524 1526 1528 1530 1532 1534 1535 1537 1538 1540 1541 1543 1545 1547 1548 1550 1552 1553 1555 1556 1558 1559 1561 1562 1563 1564 1565 1566 1567 1568 1569 1571 1572 1574 1575 1576 1577
1508 1511 1514 1517 1520 1523 1525 1528 1530 1532 1534 1536 1537 1539 1540 1542 1543 1545 1547 1549 1551 1552 1554 1556 1557 1559 1560 1562 1563 1564 1565 1566 1567 1568 1569 1570 1572 1573 1574 1576 1577 1578 1580
1509 1512 1515 1518 1521 1524 1526 1529 1531 1533 1535 1537 1539 1541 1543 1544 1546 1548 1549 1551 1553 1554 1556 1558 1559 1561 1562 1564 1565 1566 1567 1568 1569 1570 1571 1572 1574 1575 1576 1578 1579 1580 1582
1509 1512 1515 1518 1521 1524 1527 1530 1532 1534 1536 1538 1540 1542 1544 1546 1548 1550 1551 1553 1555 1556 1558 1560 1561 1563 1565 1566 1567 1568 1569 1570 1571 1572 1573 1574 1576 1577 1578 1579 1581 1582 1583
1506 1511 1515 1518 1521 1524 1527 1530 1532 1535 1537 1539 1541 1543 1545 1547 1549 1551 1553 1555 1556 1558 1560 1562 1563 1565 1566 1568 1569 1570 1571 1572 1573 1574 1575 1576 1578 1579 1580 1581 1582 1584 1585
1505 1510 1514 1518 1521 1524 1527 1530 1532 1535 1537 1540 1542 1544 1546 1548 1550 1552 1554 1556 1558 1560 1561 1563 1565 1567 1568 1570 1571 1572 1572 1573 1575 1576 1577 1578 1579 1580 1581 1583 1584 1585 1586
1504 1508 1513 1517 1521 1524 1527 1530 1533 1535 1538 1540 1543 1545 1547 1549 1551 1553 1555 1557 1559 1561 1563 1565 1567 1568 1570 1571 1572 1573 1574 1575 1576 1577 1578 1580 1581 1582 1583 1584 1585 1586 1587
1503 1507 1511 1516 1520 1523 1527 1530 1533 1536 1538 1541 1543 1546 1548 1550 1552 1554 1557 1559 1561 1563 1564 1566 1568 1570 1571 1572 1574 1575 1576 1577 1578 1579 1580 1581 1582 1583 1584 1585 1586 1587 1588
1501 1505 1510 1514 1518 1522 1526 1529 1533 1536 1539 1541 1544 1546 1549 1551 1553 1556 1558 1560 1562 1564 1566 1567 1569 1571 1572 1574 1575 1576 1577 1578 1579 1580 1581 1582 1583 1584 1585 1586 1587 1588 1589
1499 1503 1508 1513 1517 1521 1525 1529 1532 1535 1538 1541 1544 1546 1549 1551 1554 1556 1558 1561 1563 1565 1566 1568 1570 1571 1573 1574 1576 1577 1578 1579 1580 1581 1582 1583 1584 1585 1585 1586 1587 1588 1589
1498 1502 1507 1512 1516 1520 1524 1528 1531 1535 1538 1541 1543 1546 1549 1551 1554 1556 1559 1561 1563 1565 1567 1569 1570 1572 1573 1575 1576 1577 1579 1580 1581 1582 1583 1584 1584 1585 1586 1587 1588 1588 1589
1497 1501 1506 1510 1514 1518 1523 1527 1530 1534 1537 1540 1543 1546 1548 1551 1554 1556 1559 1561 1563 1565 1567 1569 1570 1572 1574 1575 1577 1578 1579 1580 1581 1582 1583 1584 1585 1586 1586 1587 1588 1588 1589
1495 1500 1504 1508 1512 1517 1521 1524 1528 1531 1535 1538 1541 1544 1547 1550 1553 1556 1558 1560 1563 1565 1567 1569 1570 1572 1574 1575 1577 1578 1579 1580 1581 1582 1583 1584 1585 1586 1586 1587 1587 1588 1589
1491 1496 1500 1504 1509 1514 1517 1521 1524 1528 1531 1535 1539 1543 1546 1549 1552 1554 1557 1559 1562 1564 1566 1568 1570 1571 1573 1575 1576 1578 1579 1580 1581 1582 1583 1584 1584 1585 1586 1586 1587 1587 1588
1487 1492 1496 1501 1506 1510 1514 1518 1522 1526 1529 1533 1537 1541 1544 1547 1550 1553 1555 1558 1560 1563 1565 1567 1569 1570 1572 1574 1576 1577 1578 1580 1580 1581 1582 1583 1583 1584 1585 1585 1586 1587 1587
1483 1488 1493 1498 1503 1508 1512 1517 1521 1524 1527 1531 1534 1537 1541 1544 1548 1551 1553 1556 1559 1561 1563 1565 1567 1569 1571 1573 1574 1576 1577 1577 1579 1580 1580 1581 1582 1583 1584 1584 1585 1586 1586
1480 1485 1490 1495 1500 1504 1509 1513 1516 1519 1522 1526 1530 1534 1538 1542 1545 1548 1551 1554 1556 1559 1561 1563 1565 1567 1569 1571 1573 1574 1576 1576 1577 1578 1579 1580 1581 1582 1582 1583 1584 1584 1585
1478 1482 1487 1492 1496 1501 1506 1509 1513 1516 1520 1523 1527 1532 1535 1539 1542 1546 1549 1551 1554 1556 1559 1561 1563 1565 1567 1569 1571 1572 1573 1575 1576 1577 1577 1578 1579 1580 1581 1581 1582 1583 1583
1476 1480 1484 1488 1492 1497 1501 1505 1509 1513 1516 1520 1524 1527 1531 1535 1539 1542 1545 1548 1550 1553 1556 1558 1560 1562 1564 1567 1568 1570 1571 1572 1573 1575 1575 1576 1577 1578 1579 1579 1580 1581 1581